Location: Endfield
(51.6667°N, 0.0667°W)
Time: 04:56:30
(UTC+00:00)

Daily predictions for brighter satellites

Satellite Brightness Start Highest point End
(mag) Time Altitude Azimuth Time Altitude Azimuth Time Altitude Azimuth
SL-16 R/B 4.4 03:19:10 21° ENE 03:19:10 21° ENE 03:21:55 10° E
Cosmos 2082 Rocket 4.3 03:23:08 22° E 03:23:08 22° E 03:26:19 10° NE
USA 234 4.3 03:24:34 10° ENE 03:28:36 41° NE 03:28:36 41° NE
NOSS 3-1 (C) 4.1 03:52:30 68° ENE 03:52:30 68° ENE 04:00:15 10° SE
COSMOS 2455 4.0 04:07:00 35° SE 04:07:00 35° SE 04:10:19 10° SE
Cosmos 2360 Rocket 3.7 04:09:26 27° NNE 04:10:21 29° NE 04:15:11 10° E
Cosmos 2333 Rocket 3.3 04:11:00 37° NNE 04:11:32 38° NE 04:16:53 10° ESE
ATLAS 3B R/B 3.9 04:14:24 33° N 04:15:35 35° N 04:22:37 10° ENE
ACS3 Solar Sail 4.0 04:12:02 10° N 04:12:40 13° N 04:12:40 13° N
NOSS 3-4 (A) 4.3 04:23:04 36° NNE 04:23:04 36° NNE 04:27:12 10° NE
NOSS 3-4 (C) 4.3 04:23:13 37° NNE 04:23:13 37° NNE 04:27:21 10° NE
Cosmos 2219 Rocket 3.9 04:25:49 22° N 04:27:44 26° NE 04:32:24 10° E
ADEOS Rocket 4.3 04:22:35 10° N 04:27:22 36° NNW 04:27:22 36° NNW
COSMO-SKYMED 1 4.1 04:29:01 10° SE 04:32:40 31° ENE 04:32:40 31° ENE
Cosmos 2322 Rocket 3.3 04:32:25 34° N 04:34:02 41° NE 04:39:23 10° ESE
Cosmos 1937 Rocket 3.8 04:49:25 53° SSE 04:49:25 53° SSE 04:53:20 10° SSE
Cosmos 858 Rocket 4.5 04:49:23 77° NE 04:49:28 78° ENE 04:54:39 10° SSE
USA 59 Rocket 2.1 04:54:18 18° S 04:54:18 18° S 04:55:46 10° SSE
Cosmos 2237 4.4 04:53:25 58° SSW 04:53:25 58° SSW 04:58:11 10° SSE
Aureole 1 Rocket 4.4 04:53:29 52° SW 04:53:29 52° SW 05:00:03 10° S
Cosmos 1833 Rocket 4.2 04:55:09 23° N 04:55:09 23° N 04:57:52 10° NNE
Meteor 2-3 Rocket 4.3 04:49:08 10° S 04:54:42 56° E 05:00:15 10° NNE
Cosmos 2058 Rocket 4.1 04:54:41 26° NNE 04:56:43 44° ENE 05:00:56 10° SE
NOSS 3-1 (A) 3.9 04:57:15 45° NW 04:59:51 83° NE 05:08:30 10° SE
COSMOS 2406 3.5 04:55:16 14° SSW 05:00:02 64° ESE 05:05:40 10° NE
SKYMED 2 3.8 04:56:34 10° SSE 05:00:15 63° SSE 05:00:15 63° SSE
SL-16 R/B 2.1 05:01:02 59° NNW 05:02:12 90° ENE 05:07:53 10° SSE
Cosmos 2082 Rocket 2.0 05:05:01 67° W 05:05:32 73° WNW 05:11:11 10° NNE
CZ-4 R/B 4.3 05:02:11 10° NNE 05:06:47 56° ESE 05:11:18 10° S
ATLAS 5 CENTAUR R/B 3.5 05:10:38 13° NNE 05:10:38 13° NNE 05:11:17 10° NNE
SeaSat 1 3.7 05:04:46 10° NNE 05:07:30 28° N 05:07:30 28° N
BREEZE-M DEB (TANK) 4.4 05:12:02 32° SE 05:12:02 32° SE 05:13:37 10° E
Okean 1 4.1 05:11:24 37° NE 05:12:05 42° ENE 05:15:29 10° SSE
USA 234 3.5 05:07:28 10° ENE 05:13:51 57° N 05:15:57 41° NW
CZ-2C R/B 4.1 05:11:22 10° N 05:13:16 21° N 05:13:16 21° N
Helios 1A Rocket 3.4 05:13:31 10° SSE 05:15:55 43° SE 05:15:55 43° SE
NOAA 12 4.3 05:11:50 10° NNE 05:17:09 73° ESE 05:22:24 10° S
Cosmos 2285 Rocket 4.4 05:17:03 17° NNW 05:22:06 63° ENE 05:28:27 10° SE
BREEZE-M DEB (TANK) 3.2 05:23:26 49° SE 05:23:26 49° SE 05:26:58 10° E
BREEZE-M DEB (TANK) 3.2 05:24:36 33° S 05:24:48 33° S 05:29:26 10° ESE
Cosmos 2278 3.6 05:24:16 41° NW 05:26:16 72° WSW 05:31:52 10° SSE
SL-4 R/B 1.9 05:28:33 55° SE 05:28:33 55° SE 05:31:12 10° ESE
FengYun 1-2 T 4.2 05:24:02 10° N 05:29:38 64° WNW 05:35:13 10° SSW
NOSS 8 (A) 4.5 05:33:11 60° E 05:33:11 60° E 05:35:53 10° SE
Cosmos 2221 4.2 05:30:38 10° N 05:34:19 30° ENE 05:38:00 10° SE
Cosmos 2026 Rocket 3.9 05:28:34 10° S 05:34:38 89° W 05:40:48 10° N
SL-16 R/B 4.4 05:38:46 10° N 05:40:58 12° NNE 05:43:09 10° NE
SJ-11-01 4.5 05:38:16 10° N 05:42:46 46° WNW 05:45:29 22° SW
Cosmos 841 Rocket 3.6 05:40:31 26° SW 05:43:15 53° WNW 05:48:26 10° NNE
Cosmos 405 Rocket 4.0 05:40:28 10° SSE 05:43:28 34° E 05:46:30 10° NNE
COSMOS 2455 4.1 05:50:11 21° WSW 05:50:11 21° WSW 05:53:48 10° SSW
Cosmos 2360 Rocket 2.1 05:51:12 22° NW 05:54:52 73° WSW 06:00:27 10° SSE
Cosmos 2333 Rocket 2.4 05:53:03 26° NW 05:56:02 51° WSW 06:01:34 10° S
Cosmos 1626 Rocket 4.0 05:52:24 10° S 05:56:46 64° E 06:01:08 10° NNE
Cosmos 1553 Rocket 4.0 05:50:28 10° N 05:56:54 90° WNW 06:03:20 10° S
Cosmos 1892 Rocket 3.8 05:57:18 10° SW 06:01:29 43° WNW 06:05:43 10° N
Cosmos 1092 Rocket 3.9 05:55:19 10° SSW 06:01:34 68° WNW 06:07:47 10° N
Meteor 2-2 Rocket 4.3 05:57:03 10° NNW 06:02:37 55° W 06:08:13 10° S
Cosmos-2242 3.1 06:00:27 24° NNW 06:02:41 47° W 06:06:43 10° SSW
Nadezhda 4 Rocket 4.5 05:58:46 10° SW 06:04:31 36° WNW 06:10:16 10° N
Cosmos 2237 Rocket 4.0 06:00:37 10° NNW 06:05:08 24° NE 06:09:38 10° E
Cosmos 1125 Rocket 3.9 06:01:41 11° NNW 06:06:51 64° ENE 06:12:02 10° SE
COSMO-SKYMED 1 3.1 06:04:15 10° SSW 06:07:57 32° W 06:08:59 28° WNW
ATLAS 3B R/B 3.4 06:01:38 16° NW 06:07:58 57° NE 06:15:28 10° ESE
IRS-1D 3.9 06:07:43 10° N 06:12:20 39° WNW 06:17:01 10° SW
Cosmos 2219 Rocket 2.1 06:07:32 15° NNW 06:12:23 85° WSW 06:18:01 10° SSE
Cosmos 2322 Rocket 2.5 06:14:14 18° NW 06:18:10 46° WSW 06:23:32 10° S
BREEZE-M DEB (TANK) 4.4 05:58:50 10° W 06:19:44 78° S 06:24:30 10° E
Meteor 2-6 Rocket 4.4 06:18:49 10° NNW 06:24:44 65° W 06:30:35 10° S
Cosmos 1812 Rocket 3.5 06:22:17 10° N 06:26:38 88° W 06:30:58 10° S
IGS 5A 3.3 06:23:07 10° N 06:27:06 64° WNW 06:31:04 10° SSW
Cosmos 2322 4.2 06:21:49 10° NNW 06:27:26 60° NE 06:33:02 10° SE
Cosmos 1484 Rocket 2.6 06:25:03 10° N 06:28:21 46° WNW 06:31:36 10° SW
Cosmos 1437 Rocket 2.4 06:29:20 10° NNW 06:32:48 87° ENE 06:36:15 10° SSE
Cosmos 192 4.3 06:28:02 10° NNW 06:32:57 72° WSW 06:37:49 10° SSE
Cosmos 2266 Rocket 4.3 06:26:39 10° S 06:33:00 74° E 06:39:18 10° NNE
Cosmos 2058 Rocket 4.2 06:31:52 15° NW 06:34:20 24° W 06:37:51 10° SW
Cosmos 1417 Rocket 4.4 06:28:39 10° N 06:34:48 84° W 06:40:58 10° S
Cosmos 1602 Rocket 3.7 06:30:49 10° S 06:35:15 83° E 06:39:43 10° NNE
ATLAS 2AS CENTAUR R/B 3.6 06:29:06 10° SSW 06:35:55 54° SE 06:42:34 10° NE
Meteor 2-3 Rocket 4.5 06:33:19 10° WSW 06:38:14 29° WNW 06:43:09 10° N
SL-08 ROCKET BODY 4.3 06:33:53 10° SSW 06:39:41 67° WNW 06:45:32 10° N
ARIANE 5 R/B 3.1 06:35:24 10° NNE 06:40:37 65° ESE 06:45:47 10° S
Cosmos 1743 2.2 06:37:31 10° SSW 06:40:44 65° WNW 06:43:59 10° N
COSMOS 2406 3.9 06:39:42 10° WSW 06:44:44 32° NW 06:49:48 10° NNE
SL-16 R/B 3.6 06:42:55 14° WNW 06:45:30 18° W 06:49:12 10° SW
SeaSat 1 4.3 06:43:25 10° N 06:45:32 13° NNW 06:47:07 11° NW
COSMOS 2428 2.9 06:44:03 10° NNW 06:49:47 74° ENE 06:55:29 10° SE
Cosmos 2082 Rocket 3.4 06:46:54 12° W 06:50:36 21° NW 06:54:48 10° NNE
ATLAS 5 CENTAUR R/B 3.2 06:50:12 10° NNW 06:52:10 14° N 06:54:18 10° NE
USA 234 3.4 06:50:00 10° E 06:56:32 71° NNE 07:03:03 10° WNW
MOS 1 Rocket 3.7 06:53:02 10° NNE 06:58:27 87° ESE 07:03:46 10° SSW
Cosmos 1814 Rocket 4.2 06:53:36 10° SW 06:58:41 48° WNW 07:03:50 10° NNE
CBERS-1 4.2 06:55:13 10° N 07:00:06 47° WNW 07:04:57 10° SW
Meteor 1-27 Rocket 3.8 06:57:59 10° NNW 07:03:55 87° W 07:09:40 10° S
SAR-Lupe-4 3.5 07:00:55 10° N 07:04:27 67° WNW 07:07:59 10° SSW
SL-4 R/B 3.2 07:02:41 10° W 07:05:13 21° SW 07:07:41 10° SSE
CZ-2D R/B 2.9 07:03:34 10° N 07:06:39 50° WNW 07:09:44 10° SSW
Cosmos 1570 Rocket 4.5 07:03:13 10° SSW 07:08:29 70° ESE 07:13:49 10° NNE
Cosmos 2151 3.1 07:04:46 10° SSW 07:08:43 47° WNW 07:12:44 10° N
Cosmos 1825 Rocket 3.6 07:04:28 10° S 07:08:53 89° W 07:13:20 10° N
Cosmos 2221 3.3 07:07:43 10° NNW 07:11:22 30° W 07:14:59 10° SSW
Cosmos 1758 Rocket 4.3 07:07:42 10° SW 07:11:38 31° WNW 07:15:35 10° N
CORIOLIS 4.3 07:08:01 10° N 07:13:17 56° WNW 07:18:33 10° SW
SAR-Lupe-1 4.1 07:10:30 10° N 07:14:05 61° WNW 07:17:38 10° SSW
USA 229 4.1 07:08:14 10° NW 07:15:35 81° SW 07:23:42 10° SE
USA 229 DEB 4.1 07:08:20 10° NW 07:15:40 81° SW 07:23:47 10° SE
Cosmos 405 Rocket 3.8 07:14:50 10° WSW 07:17:09 18° WNW 07:19:30 10° NNW
Cosmos 1238 Rocket 2.3 07:15:00 10° NNW 07:17:44 43° W 07:20:28 10° SSW
Meteor 1-20 Rocket 4.2 07:12:24 10° SSW 07:18:00 67° WNW 07:23:34 10° N
Cosmos 1707 3.2 07:15:29 10° NNW 07:18:13 27° W 07:20:56 10° SSW
COBE Rocket 4.1 07:13:43 10° SSE 07:18:17 71° ENE 07:22:56 10° N
Thor Agena Rocket 3.7 07:13:37 10° N 07:18:28 47° WNW 07:23:16 10° SW
Cosmos 2315 Rocket 4.2 07:17:30 10° NNW 07:23:45 59° W 07:29:54 10° S
